Location: Wallasey
(53.4265°N, 3.0662°W)
Time: 16:21:04
(UTC+01:00)

NOAA 18 - Pass Details

Date: 22 September 2019
Orbit: 840 x 861 km, 99.1° (Epoch: 20 October)

Event Time Altitude Azimuth Distance (km) Brightness Sun altitude
Exits shadow 22:55:17 10° 232° (SW) 2,530 7.7 -30.1°
Reaches altitude 10° 22:55:27 10° 233° (SW) 2,494 7.6 -30.1°
Maximum altitude 22:59:01 17° 273° (W) 2,033 7.6 -30.4°
Drops below altitude 10° 23:02:36 10° 314° (NW) 2,510 8.5 -30.7°
Sets 23:05:53 0° 334° (NNW) 3,454 9.5 -31.0°
